10-05-2022, 00:00:03,    206,    1.4,   13.3,   0.00,   0.00, 1012.9,   70.6, -999.0
10-05-2022, 00:00:13,    210,    2.4,   13.3,   0.00,   0.00, 1012.9,   70.8, -999.0
10-05-2022, 00:00:22,    210,    1.7,   13.3,   0.00,   0.00, 1012.9,   70.7, -999.0
10-05-2022, 00:00:33,    214,    0.4,   13.3,   0.00,   0.00, 1012.9,   70.7, -999.0
10-05-2022, 00:00:43,    162,    0.5,   13.3,   0.00,   0.00, 1012.8,   70.8, -999.0
10-05-2022, 00:00:52,    171,    0.0,   13.2,   0.00,   0.00, 1012.8,   70.6, -999.0
10-05-2022, 00:01:02,    146,    1.3,   13.2,   0.00,   0.00, 1012.9,   70.9, -999.0
10-05-2022, 00:01:13,    194,    1.6,   13.2,   0.00,   0.00, 1012.9,   70.8, -999.0
10-05-2022, 00:01:22,    205,    0.4,   13.2,   0.00,   0.00, 1012.8,   70.8, -999.0
10-05-2022, 00:01:32,    204,    0.0,   13.2,   0.00,   0.00, 1012.7,   70.5, -999.0
10-05-2022, 00:01:42,    222,    1.3,   13.1,   0.00,   0.00, 1012.9,   70.8, -999.0
10-05-2022, 00:01:52,    215,    1.4,   13.2,   0.00,   0.00, 1012.9,   70.9, -999.0
10-05-2022, 00:02:02,    190,    1.3,   13.3,   0.00,   0.00, 1012.9,   70.8, -999.0
10-05-2022, 00:02:12,    189,    1.1,   13.3,   0.00,   0.00, 1012.9,   70.9, -999.0
10-05-2022, 00:02:22,    192,    0.3,   13.2,   0.00,   0.00, 1012.8,   70.8, -999.0
10-05-2022, 00:02:32,    196,    0.0,   13.2,   0.00,   0.00, 1012.7,   70.6, -999.0
10-05-2022, 00:02:42,    139,    0.6,   13.2,   0.00,   0.00, 1012.9,   70.9, -999.0
10-05-2022, 00:02:52,    169,    2.0,   13.3,   0.00,   0.00, 1012.9,   70.9, -999.0
10-05-2022, 00:03:02,    187,    0.7,   13.2,   0.00,   0.00, 1012.9,   70.8, -999.0
10-05-2022, 00:03:12,    214,    1.7,   13.3,   0.00,   0.00, 1012.9,   70.9, -999.0
10-05-2022, 00:03:22,    202,    3.8,   13.1,   0.00,   0.00, 1012.9,   70.9, -999.0
10-05-2022, 00:03:31,    202,    0.8,   13.3,   0.00,   0.00, 1012.9,   70.7, -999.0
10-05-2022, 00:03:42,    186,    0.7,   13.3,   0.00,   0.00, 1012.9,   70.8, -999.0
10-05-2022, 00:03:52,    165,    0.6,   13.3,   0.00,   0.00, 1012.9,   70.7, -999.0
10-05-2022, 00:04:01,    223,    0.1,   13.3,   0.00,   0.00, 1012.8,   70.6, -999.0
10-05-2022, 00:04:12,    195,    2.1,   13.2,   0.00,   0.00, 1012.9,   70.9, -999.0
10-05-2022, 00:04:21,    194,    0.3,   13.2,   0.00,   0.00, 1012.8,   70.8, -999.0
10-05-2022, 00:04:31,    194,    0.0,   13.2,   0.00,   0.00, 1012.8,   70.7, -999.0
10-05-2022, 00:04:41,    194,    0.0,   13.2,   0.00,   0.00, 1012.7,   70.5, -999.0
10-05-2022, 00:04:51,    205,    2.3,   13.2,   0.00,   0.00, 1012.9,   70.9, -999.0
10-05-2022, 00:05:01,    111,    1.3,   13.3,   0.00,   0.00, 1012.9,   70.8, -999.0
10-05-2022, 00:05:11,    205,    0.7,   13.2,   0.00,   0.00, 1012.8,   70.7, -999.0
10-05-2022, 00:05:21,    212,    0.3,   13.2,   0.00,   0.00, 1012.8,   70.7, -999.0
10-05-2022, 00:05:31,    138,    1.7,   13.2,   0.00,   0.00, 1012.9,   70.9, -999.0
10-05-2022, 00:05:41,    156,    1.0,   13.3,   0.00,   0.00, 1012.8,   70.8, -999.0
10-05-2022, 00:05:51,    158,    0.2,   13.1,   0.00,   0.00, 1012.8,   70.6, -999.0
10-05-2022, 00:06:01,    167,    0.8,   13.2,   0.00,   0.00, 1012.8,   70.6, -999.0
10-05-2022, 00:06:11,    220,    0.8,   13.3,   0.00,   0.00, 1012.8,   70.7, -999.0
10-05-2022, 00:06:21,    184,    2.1,   13.2,   0.00,   0.00, 1012.9,   70.9, -999.0
10-05-2022, 00:06:31,    180,    1.2,   13.3,   0.00,   0.00, 1012.9,   70.8, -999.0
10-05-2022, 00:06:41,    177,    0.5,   13.2,   0.00,   0.00, 1012.8,   70.9, -999.0
10-05-2022, 00:06:51,    178,    0.1,   13.2,   0.00,   0.00, 1012.8,   70.8, -999.0
10-05-2022, 00:07:00,    178,    0.0,   13.1,   0.00,   0.00, 1012.7,   70.4, -999.0
10-05-2022, 00:07:10,    178,    0.0,   13.1,   0.00,   0.00, 1012.7,   70.4, -999.0
10-05-2022, 00:07:21,    183,    0.1,   13.2,   0.00,   0.00, 1012.8,   70.8, -999.0
10-05-2022, 00:07:30,    215,    0.4,   13.2,   0.00,   0.00, 1012.8,   70.7, -999.0
10-05-2022, 00:07:40,    207,    1.5,   13.3,   0.00,   0.00, 1012.8,   70.8, -999.0
10-05-2022, 00:07:50,    197,    1.1,   13.2,   0.00,   0.00, 1012.8,   70.8, -999.0
10-05-2022, 00:08:00,    245,    1.2,   13.3,   0.00,   0.00, 1012.8,   70.9, -999.0
10-05-2022, 00:08:10,    234,    0.3,   13.1,   0.00,   0.00, 1012.7,   70.9, -999.0
10-05-2022, 00:08:20,    202,    0.3,   13.1,   0.00,   0.00, 1012.7,   70.8, -999.0
10-05-2022, 00:08:30,    203,    0.0,   13.1,   0.00,   0.00, 1012.7,   70.6, -999.0
10-05-2022, 00:08:40,    129,    1.9,   13.2,   0.00,   0.00, 1012.7,   70.8, -999.0
10-05-2022, 00:08:50,    149,    1.2,   13.1,   0.00,   0.00, 1012.8,   70.7, -999.0
10-05-2022, 00:09:00,    237,    0.8,   13.2,   0.00,   0.00, 1012.8,   71.0, -999.0
10-05-2022, 00:09:10,    183,    0.4,   13.2,   0.00,   0.00, 1012.8,   70.8, -999.0
10-05-2022, 00:09:20,    185,    0.6,   13.2,   0.00,   0.00, 1012.8,   70.9, -999.0
10-05-2022, 00:09:30,    153,    1.8,   13.2,   0.00,   0.00, 1012.8,   71.0, -999.0
10-05-2022, 00:09:40,    157,    0.2,   13.1,   0.00,   0.00, 1012.7,   70.7, -999.0
10-05-2022, 00:09:50,    207,    0.5,   13.1,   0.00,   0.00, 1012.7,   71.0, -999.0
10-05-2022, 00:10:00,    178,    1.3,   13.2,   0.00,   0.00, 1012.8,   71.1, -999.0
10-05-2022, 00:10:09,    216,    0.5,   13.1,   0.00,   0.00, 1012.7,   70.9, -999.0
10-05-2022, 00:10:20,    208,    1.2,   13.1,   0.00,   0.00, 1012.7,   71.0, -999.0
10-05-2022, 00:10:30,    206,    0.2,   13.1,   0.00,   0.00, 1012.7,   70.9, -999.0
10-05-2022, 00:10:39,    204,    0.3,   13.1,   0.00,   0.00, 1012.7,   70.9, -999.0
10-05-2022, 00:10:49,    205,    0.1,   13.1,   0.00,   0.00, 1012.6,   70.8, -999.0
10-05-2022, 00:11:00,    203,    0.1,   13.1,   0.00,   0.00, 1012.7,   70.9, -999.0
10-05-2022, 00:11:09,    205,    0.0,   13.1,   0.00,   0.00, 1012.7,   70.9, -999.0
10-05-2022, 00:11:19,    205,    0.1,   13.1,   0.00,   0.00, 1012.7,   70.9, -999.0
10-05-2022, 00:11:29,    173,    0.6,   13.2,   0.00,   0.00, 1012.7,   71.2, -999.0
10-05-2022, 00:11:39,    173,    0.0,   13.1,   0.00,   0.00, 1012.6,   70.7, -999.0
10-05-2022, 00:11:49,    167,    0.3,   13.1,   0.00,   0.00, 1012.7,   70.8, -999.0
10-05-2022, 00:11:59,    161,    1.4,   13.2,   0.00,   0.00, 1012.7,   71.0, -999.0
10-05-2022, 00:12:09,    171,    0.1,   13.1,   0.00,   0.00, 1012.6,   70.9, -999.0
10-05-2022, 00:12:19,    171,    0.0,   13.1,   0.00,   0.00, 1012.6,   70.6, -999.0
10-05-2022, 00:12:29,    173,    0.5,   13.1,   0.00,   0.00, 1012.7,   71.0, -999.0
10-05-2022, 00:12:39,    172,    0.6,   13.2,   0.00,   0.00, 1012.7,   70.9, -999.0
10-05-2022, 00:12:49,    217,    1.0,   13.1,   0.00,   0.00, 1012.7,   71.1, -999.0
10-05-2022, 00:12:59,    184,    0.8,   13.1,   0.00,   0.00, 1012.7,   70.8, -999.0
10-05-2022, 00:13:09,    174,    1.4,   13.2,   0.00,   0.00, 1012.7,   71.0, -999.0
10-05-2022, 00:13:18,    225,    1.1,   13.1,   0.00,   0.00, 1012.7,   71.0, -999.0
10-05-2022, 00:13:29,    199,    1.2,   13.2,   0.00,   0.00, 1012.7,   71.0, -999.0
10-05-2022, 00:13:39,    208,    0.8,   13.1,   0.00,   0.00, 1012.7,   71.1, -999.0
10-05-2022, 00:13:48,    209,    1.7,   13.1,   0.00,   0.00, 1012.7,   71.0, -999.0
10-05-2022, 00:13:58,    210,    1.3,   13.1,   0.00,   0.00, 1012.7,   71.3, -999.0
10-05-2022, 00:14:09,    160,    1.4,   13.1,   0.00,   0.00, 1012.7,   71.0, -999.0
10-05-2022, 00:14:18,    162,    0.4,   13.1,   0.00,   0.00, 1012.7,   71.0, -999.0
10-05-2022, 00:14:28,    162,    0.1,   13.0,   0.00,   0.00, 1012.6,   71.1, -999.0
10-05-2022, 00:14:38,    163,    0.0,   13.0,   0.00,   0.00, 1012.6,   70.7, -999.0
10-05-2022, 00:14:48,    188,    0.4,   13.1,   0.00,   0.00, 1012.7,   71.1, -999.0
10-05-2022, 00:14:58,    207,    0.2,   13.0,   0.00,   0.00, 1012.6,   70.9, -999.0
10-05-2022, 00:15:08,    206,    0.3,   13.1,   0.00,   0.00, 1012.7,   71.1, -999.0
10-05-2022, 00:15:18,    182,    0.0,   13.0,   0.00,   0.00, 1012.6,   70.8, -999.0
10-05-2022, 00:15:28,    175,    2.7,   13.1,   0.00,   0.00, 1012.7,   71.2, -999.0
10-05-2022, 00:15:38,    211,    1.8,   13.1,   0.00,   0.00, 1012.7,   71.1, -999.0
10-05-2022, 00:15:48,    193,    1.0,   13.1,   0.00,   0.00, 1012.7,   71.1, -999.0
10-05-2022, 00:15:58,    193,    0.0,   13.1,   0.00,   0.00, 1012.6,   70.7, -999.0
10-05-2022, 00:16:08,    194,    0.1,   13.1,   0.00,   0.00, 1012.6,   70.9, -999.0
10-05-2022, 00:16:18,    194,    0.0,   13.0,   0.00,   0.00, 1012.5,   70.7, -999.0
10-05-2022, 00:16:27,    205,    0.3,   13.1,   0.00,   0.00, 1012.6,   71.0, -999.0
10-05-2022, 00:16:38,    190,    0.8,   13.2,   0.00,   0.00, 1012.7,   71.1, -999.0
10-05-2022, 00:16:48,    192,    1.1,   13.1,   0.00,   0.00, 1012.7,   71.1, -999.0
10-05-2022, 00:16:57,    175,    0.2,   13.1,   0.00,   0.00, 1012.6,   70.7, -999.0
10-05-2022, 00:17:07,    220,    1.3,   13.1,   0.00,   0.00, 1012.7,   71.0, -999.0
10-05-2022, 00:17:18,    236,    2.8,   13.0,   0.00,   0.00, 1012.7,   70.9, -999.0
10-05-2022, 00:17:27,    194,    2.0,   13.1,   0.00,   0.00, 1012.7,   70.9, -999.0
10-05-2022, 00:17:37,    193,    0.4,   13.1,   0.00,   0.00, 1012.7,   70.7, -999.0
10-05-2022, 00:17:47,    193,    0.0,   13.1,   0.00,   0.00, 1012.6,   70.6, -999.0
10-05-2022, 00:17:57,    204,    1.2,   13.1,   0.00,   0.00, 1012.7,   70.8, -999.0
10-05-2022, 00:18:07,    176,    0.5,   13.2,   0.00,   0.00, 1012.7,   70.7, -999.0
10-05-2022, 00:18:17,    227,    0.4,   13.1,   0.00,   0.00, 1012.6,   70.5, -999.0
10-05-2022, 00:18:27,    211,    1.3,   13.1,   0.00,   0.00, 1012.7,   70.7, -999.0
10-05-2022, 00:18:37,    198,    0.6,   13.1,   0.00,   0.00, 1012.7,   70.6, -999.0
10-05-2022, 00:18:47,    165,    0.7,   13.1,   0.00,   0.00, 1012.7,   70.7, -999.0
10-05-2022, 00:18:57,    167,    0.0,   13.1,   0.00,   0.00, 1012.6,   70.4, -999.0
10-05-2022, 00:19:07,    202,    1.5,   13.1,   0.00,   0.00, 1012.7,   70.7, -999.0
10-05-2022, 00:19:17,    216,    1.7,   13.1,   0.00,   0.00, 1012.7,   70.7, -999.0
10-05-2022, 00:19:27,    186,    1.8,   13.2,   0.00,   0.00, 1012.7,   70.7, -999.0
10-05-2022, 00:19:36,    148,    0.8,   13.1,   0.00,   0.00, 1012.7,   70.6, -999.0
10-05-2022, 00:19:47,    149,    0.1,   13.0,   0.00,   0.00, 1012.7,   70.5, -999.0
10-05-2022, 00:19:57,    228,    0.4,   13.1,   0.00,   0.00, 1012.7,   70.6, -999.0
10-05-2022, 00:20:06,    212,    0.9,   13.1,   0.00,   0.00, 1012.7,   70.7, -999.0
10-05-2022, 00:20:17,    212,    0.8,   13.1,   0.00,   0.00, 1012.7,   70.6, -999.0
10-05-2022, 00:20:27,    227,    1.5,   13.2,   0.00,   0.00, 1012.7,   70.6, -999.0
10-05-2022, 00:20:36,    162,    2.1,   13.1,   0.00,   0.00, 1012.7,   70.6, -999.0
10-05-2022, 00:20:46,    180,    2.8,   13.0,   0.00,   0.00, 1012.8,   70.6, -999.0
10-05-2022, 00:20:56,    250,    1.7,   13.1,   0.00,   0.00, 1012.7,   70.5, -999.0
10-05-2022, 00:21:06,    170,    0.6,   13.1,   0.00,   0.00, 1012.8,   70.4, -999.0
10-05-2022, 00:21:16,    201,    2.3,   13.1,   0.00,   0.00, 1012.7,   70.4, -999.0
10-05-2022, 00:21:26,    198,    1.4,   13.1,   0.00,   0.00, 1012.7,   70.5, -999.0
10-05-2022, 00:21:36,    200,    2.0,   13.1,   0.00,   0.00, 1012.7,   70.4, -999.0
10-05-2022, 00:21:46,    192,    2.3,   13.1,   0.00,   0.00, 1012.7,   70.5, -999.0
10-05-2022, 00:21:56,    222,    1.8,   13.1,   0.00,   0.00, 1012.7,   70.6, -999.0
10-05-2022, 00:22:06,    124,    2.3,   13.0,   0.00,   0.00, 1012.7,   70.4, -999.0
10-05-2022, 00:22:16,    147,    0.1,   13.1,   0.00,   0.00, 1012.6,   70.2, -999.0
10-05-2022, 00:22:26,    164,    0.0,   13.0,   0.00,   0.00, 1012.6,   70.1, -999.0
10-05-2022, 00:22:36,    191,    0.0,   13.0,   0.00,   0.00, 1012.6,   70.4, -999.0
10-05-2022, 00:22:46,    193,    0.0,   13.0,   0.00,   0.00, 1012.6,   70.1, -999.0
10-05-2022, 00:22:56,    144,    0.9,   13.1,   0.00,   0.00, 1012.7,   70.5, -999.0
10-05-2022, 00:23:06,    208,    0.2,   13.1,   0.00,   0.00, 1012.7,   70.4, -999.0
10-05-2022, 00:23:15,    149,    0.8,   13.1,   0.00,   0.00, 1012.8,   70.6, -999.0
10-05-2022, 00:23:26,    191,    1.9,   13.0,   0.00,   0.00, 1012.8,   70.5, -999.0
10-05-2022, 00:23:35,    204,    1.1,   13.1,   0.00,   0.00, 1012.8,   70.4, -999.0
10-05-2022, 00:23:45,    217,    2.3,   13.1,   0.00,   0.00, 1012.7,   70.4, -999.0
10-05-2022, 00:23:56,    192,    0.4,   13.0,   0.00,   0.00, 1012.7,   70.2, -999.0
10-05-2022, 00:24:05,    230,    1.4,   12.9,   0.00,   0.00, 1012.7,   70.4, -999.0
10-05-2022, 00:24:15,    191,    1.1,   13.0,   0.00,   0.00, 1012.8,   70.5, -999.0
10-05-2022, 00:24:25,    186,    0.6,   13.1,   0.00,   0.00, 1012.7,   70.3, -999.0
10-05-2022, 00:24:35,    178,    2.1,   13.1,   0.00,   0.00, 1012.7,   70.4, -999.0
10-05-2022, 00:24:45,    218,    1.8,   13.0,   0.00,   0.00, 1012.8,   70.4, -999.0
10-05-2022, 00:24:55,    207,    1.4,   13.0,   0.00,   0.00, 1012.7,   70.5, -999.0
10-05-2022, 00:25:05,    223,    2.3,   13.1,   0.00,   0.00, 1012.8,   70.4, -999.0
10-05-2022, 00:25:15,    209,    2.9,   13.1,   0.00,   0.00, 1012.8,   70.4, -999.0
10-05-2022, 00:25:25,    186,    2.1,   13.1,   0.00,   0.00, 1012.8,   70.3, -999.0
10-05-2022, 00:25:35,    195,    2.1,   13.1,   0.00,   0.00, 1012.8,   70.4, -999.0
10-05-2022, 00:25:45,    182,    2.4,   13.0,   0.00,   0.00, 1012.8,   70.3, -999.0
10-05-2022, 00:25:55,    161,    0.5,   13.0,   0.00,   0.00, 1012.7,   70.3, -999.0
10-05-2022, 00:26:05,    200,    0.7,   13.0,   0.00,   0.00, 1012.7,   70.2, -999.0
10-05-2022, 00:26:14,    188,    1.5,   13.1,   0.00,   0.00, 1012.8,   70.3, -999.0
10-05-2022, 00:26:25,    197,    0.2,   13.1,   0.00,   0.00, 1012.7,   70.2, -999.0
10-05-2022, 00:26:35,    185,    2.1,   13.0,   0.00,   0.00, 1012.7,   70.3, -999.0
10-05-2022, 00:26:44,    195,    1.3,   13.1,   0.00,   0.00, 1012.8,   70.4, -999.0
10-05-2022, 00:26:54,    197,    0.4,   13.1,   0.00,   0.00, 1012.7,   70.4, -999.0
10-05-2022, 00:27:05,    197,    0.1,   13.1,   0.00,   0.00, 1012.7,   70.3, -999.0
10-05-2022, 00:27:14,    197,    0.0,   13.0,   0.00,   0.00, 1012.6,   70.2, -999.0
10-05-2022, 00:27:24,    211,    0.0,   13.0,   0.00,   0.00, 1012.6,   70.2, -999.0
10-05-2022, 00:27:34,    211,    0.0,   13.1,   0.00,   0.00, 1012.6,   70.2, -999.0
10-05-2022, 00:27:44,    209,    1.2,   13.1,   0.00,   0.00, 1012.8,   70.3, -999.0
10-05-2022, 00:27:54,    180,    0.6,   13.1,   0.00,   0.00, 1012.7,   70.3, -999.0
10-05-2022, 00:28:04,    180,    0.0,   13.0,   0.00,   0.00, 1012.6,   70.1, -999.0
10-05-2022, 00:28:14,    209,    1.6,   13.0,   0.00,   0.00, 1012.7,   70.3, -999.0
10-05-2022, 00:28:24,    219,    1.9,   13.1,   0.00,   0.00, 1012.7,   70.4, -999.0
10-05-2022, 00:28:34,    180,    3.5,   13.1,   0.00,   0.00, 1012.7,   70.3, -999.0
10-05-2022, 00:28:44,    222,    1.8,   13.0,   0.00,   0.00, 1012.7,   70.4, -999.0
10-05-2022, 00:28:54,    206,    2.4,   13.0,   0.00,   0.00, 1012.8,   70.3, -999.0
10-05-2022, 00:29:04,    192,    1.4,   13.0,   0.00,   0.00, 1012.7,   70.3, -999.0
10-05-2022, 00:29:14,    195,    1.2,   13.0,   0.00,   0.00, 1012.8,   70.4, -999.0
10-05-2022, 00:29:23,    162,    2.1,   13.0,   0.00,   0.00, 1012.7,   70.3, -999.0
10-05-2022, 00:29:34,    166,    1.1,   13.1,   0.00,   0.00, 1012.7,   70.4, -999.0
10-05-2022, 00:29:44,    166,    0.2,   13.0,   0.00,   0.00, 1012.6,   70.2, -999.0
10-05-2022, 00:29:53,    241,    0.4,   13.0,   0.00,   0.00, 1012.7,   70.3, -999.0
10-05-2022, 00:30:04,    234,    0.4,   13.0,   0.00,   0.00, 1012.7,   70.3, -999.0
10-05-2022, 00:30:14,    233,    0.0,   13.0,   0.00,   0.00, 1012.7,   70.2, -999.0
10-05-2022, 00:30:23,    221,    0.0,   13.0,   0.00,   0.00, 1012.6,   70.0, -999.0
10-05-2022, 00:30:33,    197,    1.1,   13.0,   0.00,   0.00, 1012.8,   70.3, -999.0
10-05-2022, 00:30:43,    163,    0.8,   13.0,   0.00,   0.00, 1012.7,   70.3, -999.0
10-05-2022, 00:30:53,    167,    0.0,   13.0,   0.00,   0.00, 1012.6,   70.0, -999.0
10-05-2022, 00:31:03,    206,    1.4,   13.0,   0.00,   0.00, 1012.7,   70.4, -999.0
10-05-2022, 00:31:13,    163,    1.4,   13.1,   0.00,   0.00, 1012.7,   70.4, -999.0
10-05-2022, 00:31:23,    220,    0.4,   13.0,   0.00,   0.00, 1012.7,   70.1, -999.0
10-05-2022, 00:31:33,    242,    0.8,   13.0,   0.00,   0.00, 1012.7,   70.3, -999.0
10-05-2022, 00:31:43,    219,    2.0,   13.1,   0.00,   0.00, 1012.7,   70.3, -999.0
10-05-2022, 00:31:53,    211,    0.9,   13.0,   0.00,   0.00, 1012.7,   70.2, -999.0
10-05-2022, 00:32:03,    212,    0.0,   13.0,   0.00,   0.00, 1012.6,   70.0, -999.0
10-05-2022, 00:32:13,    211,    0.0,   13.0,   0.00,   0.00, 1012.6,   69.9, -999.0
10-05-2022, 00:32:23,    210,    0.0,   13.0,   0.00,   0.00, 1012.6,   70.1, -999.0
10-05-2022, 00:32:33,    147,    1.1,   13.0,   0.00,   0.00, 1012.7,   70.1, -999.0
10-05-2022, 00:32:43,    207,    0.8,   13.0,   0.00,   0.00, 1012.7,   70.3, -999.0
10-05-2022, 00:32:53,    219,    1.8,   13.1,   0.00,   0.00, 1012.7,   70.2, -999.0
10-05-2022, 00:33:02,    219,    3.1,   13.0,   0.00,   0.00, 1012.7,   70.2, -999.0
10-05-2022, 00:33:13,    201,    1.9,   13.1,   0.00,   0.00, 1012.7,   70.1, -999.0
10-05-2022, 00:33:22,    206,    2.1,   13.1,   0.00,   0.00, 1012.7,   70.3, -999.0
10-05-2022, 00:33:32,    220,    2.0,   13.0,   0.00,   0.00, 1012.8,   70.2, -999.0
10-05-2022, 00:33:42,    196,    2.0,   12.9,   0.00,   0.00, 1012.8,   70.4, -999.0
10-05-2022, 00:33:52,    189,    2.2,   13.0,   0.00,   0.00, 1012.7,   70.4, -999.0
10-05-2022, 00:34:02,    217,    2.9,   13.0,   0.00,   0.00, 1012.7,   70.3, -999.0
10-05-2022, 00:34:12,    212,    1.7,   13.0,   0.00,   0.00, 1012.7,   70.1, -999.0
10-05-2022, 00:34:22,    247,    1.9,   13.0,   0.00,   0.00, 1012.8,   70.2, -999.0
10-05-2022, 00:34:32,    232,    2.8,   13.0,   0.00,   0.00, 1012.7,   70.2, -999.0
10-05-2022, 00:34:42,    224,    1.4,   12.9,   0.00,   0.00, 1012.8,   70.3, -999.0
10-05-2022, 00:34:52,    224,    0.5,   13.0,   0.00,   0.00, 1012.7,   70.1, -999.0
10-05-2022, 00:35:02,    205,    1.2,   13.0,   0.00,   0.00, 1012.8,   70.2, -999.0
10-05-2022, 00:35:12,    211,    1.0,   13.1,   0.00,   0.00, 1012.7,   70.3, -999.0
10-05-2022, 00:35:22,    210,    0.0,   12.9,   0.00,   0.00, 1012.6,   69.9, -999.0
10-05-2022, 00:35:32,    211,    0.0,   12.9,   0.00,   0.00, 1012.6,   69.8, -999.0
10-05-2022, 00:35:42,    210,    0.7,   13.0,   0.00,   0.00, 1012.7,   70.1, -999.0
10-05-2022, 00:35:52,    213,    3.4,   13.1,   0.00,   0.00, 1012.8,   70.1, -999.0
10-05-2022, 00:36:02,    235,    2.3,   13.0,   0.00,   0.00, 1012.8,   70.1, -999.0
10-05-2022, 00:36:11,    189,    2.5,   13.0,   0.00,   0.00, 1012.8,   70.0, -999.0
10-05-2022, 00:36:22,    195,    0.2,   12.9,   0.00,   0.00, 1012.7,   69.9, -999.0
10-05-2022, 00:36:31,    193,    0.1,   12.9,   0.00,   0.00, 1012.6,   69.8, -999.0
10-05-2022, 00:36:41,    210,    2.5,   13.1,   0.00,   0.00, 1012.8,   70.1, -999.0
10-05-2022, 00:36:52,    200,    2.4,   13.0,   0.00,   0.00, 1012.8,   70.0, -999.0
10-05-2022, 00:37:01,    220,    1.9,   13.0,   0.00,   0.00, 1012.7,   70.0, -999.0
10-05-2022, 00:37:11,    203,    1.7,   13.0,   0.00,   0.00, 1012.8,   70.1, -999.0
10-05-2022, 00:37:21,    218,    1.9,   13.0,   0.00,   0.00, 1012.8,   70.1, -999.0
10-05-2022, 00:37:31,    214,    0.8,   13.0,   0.00,   0.00, 1012.7,   70.1, -999.0
10-05-2022, 00:37:41,    213,    0.0,   12.9,   0.00,   0.00, 1012.6,   69.7, -999.0
10-05-2022, 00:37:51,    215,    0.0,   12.9,   0.00,   0.00, 1012.6,   69.7, -999.0
10-05-2022, 00:38:01,    204,    0.3,   12.9,   0.00,   0.00, 1012.7,   69.8, -999.0
10-05-2022, 00:38:11,    206,    0.1,   13.0,   0.00,   0.00, 1012.7,   69.9, -999.0
10-05-2022, 00:38:21,    206,    0.0,   13.0,   0.00,   0.00, 1012.7,   69.9, -999.0
10-05-2022, 00:38:31,    206,    0.0,   13.0,   0.00,   0.00, 1012.6,   69.8, -999.0
10-05-2022, 00:38:41,    166,    0.1,   13.0,   0.00,   0.00, 1012.7,   69.8, -999.0
10-05-2022, 00:38:51,    166,    0.0,   13.0,   0.00,   0.00, 1012.6,   69.8, -999.0
10-05-2022, 00:39:01,    212,    2.2,   13.0,   0.00,   0.00, 1012.7,   70.0, -999.0
10-05-2022, 00:39:11,    199,    2.1,   13.1,   0.00,   0.00, 1012.8,   70.0, -999.0
10-05-2022, 00:39:21,    247,    2.3,   13.0,   0.00,   0.00, 1012.8,   69.9, -999.0
10-05-2022, 00:39:31,    250,    0.7,   13.0,   0.00,   0.00, 1012.7,   69.8, -999.0
10-05-2022, 00:39:40,    249,    0.0,   13.0,   0.00,   0.00, 1012.6,   69.5, -999.0
10-05-2022, 00:39:50,    248,    0.0,   12.9,   0.00,   0.00, 1012.6,   69.5, -999.0
10-05-2022, 00:40:01,    220,    0.7,   13.0,   0.00,   0.00, 1012.7,   69.9, -999.0
10-05-2022, 00:40:10,    184,    0.4,   13.1,   0.00,   0.00, 1012.8,   69.8, -999.0
10-05-2022, 00:40:20,    205,    1.1,   13.0,   0.00,   0.00, 1012.7,   69.7, -999.0
10-05-2022, 00:40:30,    207,    0.1,   13.0,   0.00,   0.00, 1012.6,   69.5, -999.0
10-05-2022, 00:40:40,    207,    0.0,   12.9,   0.00,   0.00, 1012.6,   69.4, -999.0
10-05-2022, 00:40:50,    206,    0.0,   13.0,   0.00,   0.00, 1012.6,   69.4, -999.0
10-05-2022, 00:41:00,    209,    0.9,   12.9,   0.00,   0.00, 1012.7,   69.7, -999.0
10-05-2022, 00:41:10,    190,    0.3,   13.0,   0.00,   0.00, 1012.7,   69.7, -999.0
10-05-2022, 00:41:20,    227,    1.4,   13.0,   0.00,   0.00, 1012.8,   69.7, -999.0
10-05-2022, 00:41:30,    140,    2.0,   13.0,   0.00,   0.00, 1012.7,   69.8, -999.0
10-05-2022, 00:41:40,    155,    0.2,   13.0,   0.00,   0.00, 1012.7,   69.7, -999.0
10-05-2022, 00:41:50,    171,    0.3,   12.9,   0.00,   0.00, 1012.7,   69.6, -999.0
10-05-2022, 00:42:00,    182,    1.6,   12.9,   0.00,   0.00, 1012.7,   69.9, -999.0
10-05-2022, 00:42:10,    217,    1.7,   13.0,   0.00,   0.00, 1012.7,   69.8, -999.0
10-05-2022, 00:42:20,    218,    1.7,   13.0,   0.00,   0.00, 1012.8,   69.7, -999.0
10-05-2022, 00:42:30,    150,    2.2,   13.0,   0.00,   0.00, 1012.7,   69.6, -999.0
10-05-2022, 00:42:40,    212,    3.0,   13.0,   0.00,   0.00, 1012.8,   69.6, -999.0
10-05-2022, 00:42:49,    197,    2.8,   13.0,   0.00,   0.00, 1012.8,   69.6, -999.0
10-05-2022, 00:42:59,    222,    3.0,   13.0,   0.00,   0.00, 1012.7,   69.6, -999.0
10-05-2022, 00:43:10,    206,    3.1,   13.0,   0.00,   0.00, 1012.8,   69.5, -999.0
10-05-2022, 00:43:19,    225,    2.2,   13.0,   0.00,   0.00, 1012.7,   69.6, -999.0
10-05-2022, 00:43:29,    201,    1.1,   12.9,   0.00,   0.00, 1012.7,   69.5, -999.0
10-05-2022, 00:43:39,    192,    0.4,   12.9,   0.00,   0.00, 1012.7,   69.5, -999.0
10-05-2022, 00:43:49,    206,    0.7,   13.0,   0.00,   0.00, 1012.7,   69.6, -999.0
10-05-2022, 00:43:59,    182,    0.6,   12.9,   0.00,   0.00, 1012.7,   69.4, -999.0
10-05-2022, 00:44:09,    204,    1.5,   13.0,   0.00,   0.00, 1012.7,   69.5, -999.0
10-05-2022, 00:44:19,    215,    0.3,   12.9,   0.00,   0.00, 1012.7,   69.5, -999.0
10-05-2022, 00:44:29,    212,    0.0,   12.8,   0.00,   0.00, 1012.6,   69.3, -999.0
10-05-2022, 00:44:39,    188,    2.2,   12.9,   0.00,   0.00, 1012.7,   69.5, -999.0
10-05-2022, 00:44:49,    167,    0.9,   12.9,   0.00,   0.00, 1012.7,   69.4, -999.0
10-05-2022, 00:44:59,    220,    1.9,   12.9,   0.00,   0.00, 1012.7,   69.6, -999.0
10-05-2022, 00:45:09,    201,    1.1,   13.0,   0.00,   0.00, 1012.7,   69.6, -999.0
10-05-2022, 00:45:19,    201,    0.1,   12.9,   0.00,   0.00, 1012.6,   69.1, -999.0
10-05-2022, 00:45:29,    195,    0.8,   12.9,   0.00,   0.00, 1012.6,   69.2, -999.0
10-05-2022, 00:45:39,    193,    1.2,   13.0,   0.00,   0.00, 1012.7,   69.4, -999.0
10-05-2022, 00:45:49,    199,    0.6,   13.0,   0.00,   0.00, 1012.7,   69.5, -999.0
10-05-2022, 00:45:58,    176,    1.2,   12.9,   0.00,   0.00, 1012.7,   69.5, -999.0
10-05-2022, 00:46:09,    154,    0.7,   12.9,   0.00,   0.00, 1012.7,   69.4, -999.0
10-05-2022, 00:46:19,    183,    0.3,   12.8,   0.00,   0.00, 1012.7,   69.2, -999.0
10-05-2022, 00:46:28,    183,    0.1,   12.9,   0.00,   0.00, 1012.6,   69.2, -999.0
10-05-2022, 00:46:38,    228,    0.7,   12.9,   0.00,   0.00, 1012.7,   69.2, -999.0